Location: Erdweis
(48.5167°N, 15.3500°E)
Time: 07:43:08
(UTC+00:00)

Envisat - Visible Passes

Search period start: 26 November 2020 00:00
Search period end: 06 December 2020 00:00
Orbit: 764 x 766 km, 98.1° (Epoch: 25 November)

Date Brightness Start Highest point End Pass type
(mag) Time Alt. Az. Time Alt. Az. Time Alt. Az.
26 Nov 6.2 03:28:05 10° ENE 03:30:16 13° E 03:32:27 10° ESE visible
26 Nov 3.0 05:04:56 10° NNE 05:10:03 87° ESE 05:15:09 10° SSW visible
26 Nov 4.0 16:23:25 10° S 16:28:21 50° W 16:33:19 10° NNW visible
27 Nov 4.3 04:28:18 10° NNE 04:33:09 42° E 04:37:57 10° S visible
27 Nov 3.0 15:46:25 10° SSE 15:51:29 80° ENE 15:56:35 10° NNW visible
27 Nov 6.1 17:28:13 10° WSW 17:31:09 15° W 17:34:05 10° NW visible
28 Nov 5.5 03:52:11 10° NE 03:56:02 21° E 03:59:51 10° SE visible
28 Nov 3.0 05:30:26 10° N 05:35:26 58° WNW 05:40:25 10° SSW visible
28 Nov 5.0 16:49:28 10° SSW 16:53:56 31° W 16:58:26 10° NNW visible
29 Nov 3.3 04:53:34 10° NNE 04:58:40 71° ESE 05:03:43 10° S visible
29 Nov 3.6 16:11:54 10° S 16:16:55 63° WSW 16:22:00 10° NNW visible
30 Nov 4.7 04:17:03 10° NNE 04:21:41 34° E 04:26:18 10° SSE visible
30 Nov 3.0 15:35:06 10° SSE 15:40:07 65° ENE 15:45:10 10° N visible
30 Nov 5.8 17:16:03 10° SW 17:19:36 19° W 17:23:11 10° NW visible
01 Dec 5.8 03:41:12 10° NE 03:44:31 17° E 03:47:49 10° SE visible
01 Dec 2.9 05:19:00 10° N 05:24:05 72° WNW 05:29:08 10° SSW visible
01 Dec 4.6 16:37:45 10° SSW 16:42:27 38° W 16:47:12 10° NNW visible
02 Dec 3.7 04:42:13 10° NNE 04:47:15 57° E 04:52:14 10° S visible
02 Dec 3.2 16:00:26 10° S 16:05:31 78° WSW 16:10:38 10° NNW visible
02 Dec 6.3 17:43:58 10° W 17:45:24 11° W 17:46:50 10° WNW visible
03 Dec 5.1 04:05:51 10° NE 04:10:13 28° E 04:14:33 10° SSE visible
03 Dec 3.3 05:44:35 10° N 05:49:24 44° WNW 05:54:12 10° SW visible
03 Dec 5.5 17:04:05 10° SW 17:08:06 23° W 17:12:08 10° NW visible
04 Dec 6.1 03:30:24 10° NE 03:32:58 14° E 03:35:31 10° ESE visible
04 Dec 3.0 05:07:35 10° NNE 05:12:42 88° WNW 05:17:47 10° SSW visible
04 Dec 4.1 16:26:08 10° S 16:31:01 47° W 16:35:56 10° NNW visible
05 Dec 4.1 04:30:54 10° NNE 04:35:49 46° E 04:40:41 10° S visible
05 Dec 3.0 15:49:03 10° SSE 15:54:07 86° ENE 15:59:15 10° NNW visible
05 Dec 6.1 17:31:12 10° WSW 17:33:50 14° W 17:36:29 10° NW visible
